Hourly Data Report for February 10, 2004

TORONTO CITY
ONTARIO

43°40'00.000" N
79°24'00.000" W
112.50 m
6158355
71508
XTO

Download Data

Hourly Data (February 2004)
Hourly Data Report for February 10, 2004
TIME
LST
Temp Definition
°C
Dew Point Definition
°C
Rel Hum Definition
%
Precip. Amount Definition
mm

Wind Dir Definition
10's deg

Wind Spd Definition
km/h
Visibility Definition
km
Stn Press Definition
kPa
Hmdx Definition


Wind Chill Definition


Weather Definition


00:00 0.1 -5.0 69   LegendMM LegendMM LegendMM 100.28     LegendNANA
01:00 0.2 -5.9 64   LegendMM LegendMM LegendMM 100.27     LegendNANA
02:00 0.1 -5.6 65   LegendMM LegendMM LegendMM 100.20     LegendNANA
03:00 -0.2 -5.2 69   LegendMM LegendMM LegendMM 100.19     LegendNANA
04:00 -0.7 -5.2 72   LegendMM LegendMM LegendMM 100.18     LegendNANA
05:00 -0.7 -5.2 72   LegendMM LegendMM LegendMM 100.19     LegendNANA
06:00 -0.9 -5.3 72   LegendMM LegendMM LegendMM 100.14     LegendNANA
07:00 -0.9 -4.8 75   LegendMM LegendMM LegendMM 100.10     LegendNANA
08:00 -0.5 -4.2 76   LegendMM LegendMM LegendMM 100.07     LegendNANA
09:00 -0.8 -3.0 85   LegendMM LegendMM LegendMM 100.06     LegendNANA
10:00 -0.5 -2.7 85   LegendMM LegendMM LegendMM 100.03     LegendNANA
11:00 0.3 -4.4 71   LegendMM LegendMM LegendMM 99.98     LegendNANA
12:00 -0.3 -3.4 80   LegendMM LegendMM LegendMM 99.93     LegendNANA
13:00 0.9 -4.0 70   LegendMM LegendMM LegendMM 99.85     LegendNANA
14:00 0.5 -4.8 68   LegendMM LegendMM LegendMM 99.78     LegendNANA
15:00 0.4 -4.8 68   LegendMM LegendMM LegendMM 99.77     LegendNANA
16:00 0.5 -5.6 64   LegendMM LegendMM LegendMM 99.75     LegendNANA
17:00 0.4 -6.0 62   LegendMM LegendMM LegendMM 99.74     LegendNANA
18:00 0.0 -7.2 58   LegendMM LegendMM LegendMM 99.79     LegendNANA
19:00 -0.3 -6.6 62   LegendMM LegendMM LegendMM 99.84     LegendNANA
20:00 -0.6 -6.6 64   LegendMM LegendMM LegendMM 99.83     LegendNANA
21:00 -1.2 -6.6 67   LegendMM LegendMM LegendMM 99.83     LegendNANA
22:00 -1.5 -6.8 67   LegendMM LegendMM LegendMM 99.87     LegendNANA
23:00 -2.1 -6.9 70   LegendMM LegendMM LegendMM 99.94     LegendNANA

Notes on Data Quality.

Legend

  • E = Estimated
  • M = Missing
  • NA = Not Available*
  • [empty] = Indicates an unobserved value
Date modified: